星链-30808 (STARLINK-30808 )

导读

STARLINK-30808是美国星链计划中的低轨互联网通信卫星,于2023年11月8日发射入轨,隶属于SpaceX公司的星链星座网络。星链星座旨在为全球提供覆盖偏远地区的高速卫星互联网服务,该卫星是星链规模扩张中的一员,进一步补充了星座的全球通信覆盖能力,支撑星链系统容量与服务稳定性提升。

Basic Information
目录编号:
58250
目录名称:
STARLINK-30808
国际标识:
2023-171W
轨道中心:
EARTH
卫星名称:
星链-30808
卫星全名:
星链-30808 (STARLINK-30808 )
卫星状态:
在轨 (已飞行953 天)
发射日期:
2023-11-08 UTC
国别 :
美国 (US)
星等 :
--
Orbit Information
数据来源 国际轨道数据 AOE轨道数据
星历时间 2026-06-16T19:47:09+0800
1天前
查看轨道信息
2026-06-16T23:00:00+0800
1天前
查看轨道信息
半长轴 6858.824km 6858.795km
偏心率 0.0000739 0.0000261
轨道倾角 42.998° 43.003°
近地点辐角 304.667° 251.233°
升交点赤经 87.338° 86.583°
平近点角 55.411° 126.607°
近地点 480.18km 480.478km
远地点 481.194km 480.838km
周期 94.218分钟 94.217分钟
每日圈数 15.283695 15.283789
Detailed Information
固有亮度:
5
最大亮度:
0.3
卫星平台:
Starlink v2.0 mini
覆盖范围:
全球
运营商:
太空探索技术公司
运营商所在国:
美国
制造商(研发单位):
太空探索技术公司
制造商所在国:
美国
使用方式:
暂无
Satellite Introduction
星链(Starlink)计划是由太空探索技术公司(SpaceX)提出的一个巨型低轨卫星互联网星座项目,计划在2019年至2024年间在太空搭建由约1.2万颗卫星组成的“星链”网络,其中1584颗将部署在地球上空550千米处的近地轨道,并从2020年开始工作。该卫星仍在工作。
2D Orbit Map
3D Orbit Map
Orbit Altitude Analysis Chart
Orbit Inclination Analysis Chart
Orbit Comprehensive Analysis Chart
View Comprehensive Chart